星链-4553 (STARLINK-4553 )

导读

STARLINK-4553是美国SpaceX星链网络计划中的卫星,于2022年8月19日8时成功发射。星链项目旨在搭建覆盖全球的低轨卫星互联网星座,该卫星入轨后与其他星链卫星组网,为全球用户提供低延迟高速互联网服务,特别助力偏远地区网络覆盖,推动全球互联基础设施建设。

基本信息
目录编号:
53577
目录名称:
STARLINK-4553
国际标识:
2022-101BC
轨道中心:
EARTH
卫星名称:
星链-4553
卫星全名:
星链-4553 (STARLINK-4553 )
卫星状态:
在轨 (已飞行1398 天)
发射日期:
2022-08-19 UTC
国别 :
美国 (US)
星等 :
--
轨道信息
数据来源 国际轨道数据 AOE轨道数据
星历时间 2026-06-17T11:33:25+0800
6小时前
查看轨道信息
2026-06-12T23:00:00+0800
4天前
查看轨道信息
半长轴 6916.172km 6917.9km
偏心率 0.0000824 0.0001096
轨道倾角 53.162° 53.159°
近地点辐角 73.856° 85.191°
升交点赤经 327.281° 347.620°
平近点角 286.252° 168.957°
近地点 537.465km 539.004km
远地点 538.605km 540.522km
周期 95.402分钟 95.438分钟
每日圈数 15.093991 15.088336
详细信息
固有亮度:
5
最大亮度:
2.5
卫星平台:
Starlink v1.5
覆盖范围:
全球
运营商:
太空探索技术公司
运营商所在国:
美国
制造商(研发单位):
太空探索技术公司
制造商所在国:
美国
使用方式:
暂无
卫星简介
星链(Starlink)计划是由太空探索技术公司(SpaceX)提出的一个巨型低轨卫星互联网星座项目,计划在2019年至2024年间在太空搭建由约1.2万颗卫星组成的“星链”网络,其中1584颗将部署在地球上空550千米处的近地轨道,并从2020年开始工作。该卫星仍在工作。
2D轨道图
3D轨道图
轨道高度分析图
轨道倾角分析图
轨道综合分析图
查看轨道综合分析图